Back to catalog

STARLINK-38132

AliveCommunicationsSSO
NORAD 100154·PAYLOAD·🇺🇸 United States

Launched Jul 25, 2026 from Vandenberg Space Force Base

Loading…

Next Passes (next 24 hours)

TLE

FreshSource: Space-Track

Epoch: Sep 14, 2026, 13:13 UTC

1 A0154U 26171G   26257.55091971  .00020533  00000-0  56901-3 0  9993
2 A0154  97.2837 290.0666 0001404  79.7382 280.4021 15.36982489  7988

Track STARLINK-38132 in real time with AllMySat

Download on the App Store